TimeMST,TemperatureF,Dew PointF,Humidity,Sea Level PressureIn,VisibilityMPH,Wind Direction,Wind SpeedMPH,Gust SpeedMPH,PrecipitationIn,Events,Conditions,WindDirDegrees,DateUTC
12:51 AM,9.0,3.0,77,30.21,10.0,ESE,10.4,-,N/A,,Overcast,120,2013-01-22 07:51:00
1:51 AM,10.0,3.9,76,30.21,10.0,ESE,8.1,-,N/A,,Overcast,120,2013-01-22 08:51:00
3:51 AM,10.9,5.0,77,30.19,10.0,ESE,8.1,-,N/A,,Overcast,110,2013-01-22 10:51:00
4:51 AM,12.0,6.1,77,30.18,10.0,SE,6.9,-,N/A,,Overcast,140,2013-01-22 11:51:00
5:51 AM,12.9,7.0,77,30.18,10.0,SE,4.6,-,N/A,,Overcast,130,2013-01-22 12:51:00
6:51 AM,12.9,6.1,74,30.19,10.0,ESE,4.6,-,N/A,,Overcast,120,2013-01-22 13:51:00
7:51 AM,12.9,7.0,77,30.19,10.0,SSE,4.6,-,N/A,,Overcast,160,2013-01-22 14:51:00
8:51 AM,10.9,5.0,77,30.19,10.0,South,3.5,-,N/A,,Scattered Clouds,170,2013-01-22 15:51:00
9:51 AM,15.1,7.0,70,30.19,10.0,West,3.5,-,N/A,,Clear,270,2013-01-22 16:51:00
10:51 AM,19.0,10.0,68,30.18,10.0,West,6.9,-,N/A,,Clear,260,2013-01-22 17:51:00
11:51 AM,21.0,12.0,68,30.16,10.0,West,10.4,-,N/A,,Clear,270,2013-01-22 18:51:00
12:51 PM,24.1,14.0,65,30.14,10.0,WNW,11.5,-,N/A,,Clear,290,2013-01-22 19:51:00
1:51 PM,24.1,14.0,65,30.15,10.0,WNW,8.1,-,N/A,,Clear,300,2013-01-22 20:51:00
2:51 PM,23.0,14.0,68,30.14,10.0,WNW,6.9,-,N/A,,Clear,290,2013-01-22 21:51:00
3:51 PM,21.9,12.9,68,30.16,10.0,WNW,8.1,-,N/A,,Clear,300,2013-01-22 22:51:00
4:51 PM,19.9,12.0,71,30.17,10.0,WNW,8.1,-,N/A,,Clear,300,2013-01-22 23:51:00
5:51 PM,19.0,12.0,74,30.17,10.0,West,12.7,-,N/A,,Clear,280,2013-01-23 00:51:00
6:51 PM,17.1,10.0,74,30.19,10.0,WNW,9.2,-,N/A,,Clear,290,2013-01-23 01:51:00
7:51 PM,17.1,10.0,74,30.19,10.0,WNW,6.9,-,N/A,,Clear,300,2013-01-23 02:51:00
8:51 PM,15.1,9.0,77,30.22,10.0,West,5.8,-,N/A,,Clear,260,2013-01-23 03:51:00
9:51 PM,16.0,9.0,74,30.23,10.0,WNW,5.8,-,N/A,,Clear,290,2013-01-23 04:51:00
10:51 PM,12.9,8.1,81,30.23,10.0,NNW,6.9,-,N/A,,Clear,330,2013-01-23 05:51:00
11:51 PM,12.9,7.0,77,30.24,10.0,NNW,6.9,-,N/A,,Clear,330,2013-01-23 06:51:00